This is the latest recevied weather packets stored in our database for station/object F6BIJ-13. If no packets are shown the sender has not sent any weather packets the latest 10 day(s).
| Time | Temp. | Humidity | Pressure | Rain* | Wind** | Luminosity | Snow |
|---|---|---|---|---|---|---|---|
| 1777347037 | 12.22° C | 77% | 1016.3 hPa | 0 mm | - | - | - |
| 1777346676 | 12.22° C | 78% | 1016.3 hPa | 0 mm | - | - | - |
| 1777346317 | 12.78° C | 77% | 1016.3 hPa | 0 mm | - | - | - |
| 1777345957 | 12.78° C | 78% | 1016.3 hPa | 0 mm | - | - | - |
| 1777345597 | 11.67° C | 79% | 1016.3 hPa | 0 mm | - | - | - |
| 1777345237 | 12.78° C | 78% | 1016.3 hPa | 0 mm | - | - | - |
| 1777344877 | 12.22° C | 76% | 1016.4 hPa | 0 mm | - | - | - |
| 1777344517 | 12.78° C | 75% | 1016.4 hPa | 0 mm | - | - | - |
| 1777344157 | 12.22° C | 77% | 1016.4 hPa | 0 mm | - | - | - |
| 1777343797 | 12.78° C | 76% | 1016.5 hPa | 0 mm | - | - | - |
| 1777343437 | 12.22° C | 75% | 1016.5 hPa | 0 mm | - | - | - |
| 1777343077 | 12.22° C | 74% | 1016.5 hPa | 0 mm | - | - | - |
| 1777342717 | 12.78° C | 76% | 1016.5 hPa | 0 mm | - | - | - |
| 1777341997 | 13.33° C | 78% | 1016.4 hPa | 0 mm | - | - | - |
| 1777341277 | 12.22° C | 74% | 1016.6 hPa | 0 mm | - | - | - |
| 1777340197 | 12.22° C | 74% | 1016.6 hPa | 0 mm | - | - | - |
| 1777339837 | 12.22° C | 75% | 1016.6 hPa | 0 mm | - | - | - |
| 1777339477 | 13.33° C | 76% | 1016.6 hPa | 0 mm | - | - | - |
| 1777339116 | 12.78° C | 75% | 1016.7 hPa | 0 mm | - | - | - |
| 1777338397 | 12.78° C | 74% | 1016.8 hPa | 0 mm | - | - | - |
| 1777337677 | 13.33° C | 73% | 1016.8 hPa | 0 mm | - | - | - |
| 1777336597 | 12.78° C | 71% | 1017 hPa | 0 mm | - | - | - |
| 1777336237 | 12.22° C | 73% | 1016.9 hPa | 0 mm | - | - | - |
| 1777335877 | 12.78° C | 73% | 1016.9 hPa | 0 mm | - | - | - |
| 1777335517 | 12.22° C | 75% | 1017 hPa | 0 mm | - | - | - |
* Rain latest 24 hours (hover to see other rain measurements)
** Current wind speed in m/s (hover to see current wind gust speed)